| time (UTC) | temp F | wind direction | speed MPH | gust MPH | rain 1hr in | rain 24hr in | rain mn in | humidity % | barometer mb |
| 20260504000055 | 64 | 259 | 6.0 | 13.0 | 0.00 | 0.00 | 0.00 | 67 | 1013.6 |
| 20260503234553 | 65 | 283 | 4.0 | 12.0 | 0.00 | 0.00 | 0.00 | 63 | 1013.5 |
| 20260503233055 | 65 | 360 | 5.0 | 14.0 | 0.00 | 0.00 | 0.00 | 64 | 1013.3 |
| 20260503231554 | 65 | 237 | 6.0 | 14.0 | 0.00 | 0.00 | 0.00 | 63 | 1013.5 |
| 20260503230056 | 67 | 245 | 4.0 | 14.0 | 0.00 | 0.00 | 0.00 | 61 | 1013.9 |
| 20260503224551 | 67 | 231 | 6.0 | 13.0 | 0.00 | 0.00 | 0.00 | 61 | 1013.8 |
| 20260503223057 | 67 | 296 | 7.0 | 13.0 | 0.00 | 0.00 | 0.00 | 60 | 1013.8 |
| 20260503221555 | 68 | 256 | 6.0 | 12.0 | 0.00 | 0.00 | 0.00 | 58 | 1013.9 |
| 20260503214555 | 68 | 360 | 7.0 | 12.0 | 0.00 | 0.00 | 0.00 | 58 | 1014.1 |
| 20260503213123 | 68 | 259 | 5.0 | 13.0 | 0.00 | 0.00 | 0.00 | 58 | 1014.1 |
| 20260503211617 | 67 | 290 | 5.0 | 13.0 | 0.00 | 0.00 | 0.00 | 59 | 1014.1 |
| 20260503210052 | 68 | 229 | 5.0 | 18.0 | 0.00 | 0.00 | 0.00 | 64 | 1014.3 |
| 20260503204606 | 67 | 254 | 7.0 | 18.0 | 0.00 | 0.00 | 0.00 | 66 | 1014.4 |
| 20260503203050 | 66 | 242 | 7.0 | 15.0 | 0.00 | 0.00 | 0.00 | 66 | 1014.5 |
| 20260503201552 | 66 | 360 | 7.0 | 13.0 | 0.00 | 0.00 | 0.00 | 68 | 1014.8 |
| 20260503200052 | 65 | 292 | 6.0 | 15.0 | 0.00 | 0.00 | 0.00 | 68 | 1014.9 |
| 20260503194551 | 66 | 250 | 7.0 | 13.0 | 0.00 | 0.00 | 0.00 | 67 | 1014.8 |
| 20260503193056 | 66 | 257 | 7.0 | 14.0 | 0.00 | 0.00 | 0.00 | 67 | 1015.1 |
| 20260503191602 | 66 | 229 | 8.0 | 15.0 | 0.00 | 0.00 | 0.00 | 66 | 1015.0 |
| 20260503190056 | 66 | 360 | 5.0 | 14.0 | 0.00 | 0.00 | 0.00 | 67 | 1015.1 |
| 20260503184607 | 64 | 270 | 8.0 | 14.0 | 0.00 | 0.00 | 0.00 | 70 | 1015.1 |
| 20260503183103 | 64 | 298 | 8.0 | 14.0 | 0.00 | 0.00 | 0.00 | 70 | 1015.1 |
| 20260503181552 | 65 | 257 | 5.0 | 12.0 | 0.00 | 0.00 | 0.00 | 70 | 1015.1 |
| 20260503180053 | 64 | 248 | 7.0 | 15.0 | 0.00 | 0.00 | 0.00 | 72 | 1015.2 |
| 20260503174609 | 65 | 244 | 4.0 | 12.0 | 0.00 | 0.00 | 0.00 | 73 | 1015.2 |
| 20260503173114 | 65 | 246 | 6.0 | 12.0 | 0.00 | 0.00 | 0.00 | 74 | 1015.1 |
| 20260503171550 | 65 | 288 | 6.0 | 13.0 | 0.00 | 0.00 | 0.00 | 75 | 1015.1 |
| 20260503100105 | 61 | 252 | 2.0 | 8.0 | 0.00 | 0.00 | 0.00 | 81 | 1012.9 |
| 20260503081558 | 61 | 196 | 1.0 | 4.0 | 0.00 | 0.00 | 0.00 | 83 | 1013.7 |
| 20260503071610 | 61 | 209 | 5.0 | 8.0 | 0.00 | 0.00 | 0.00 | 84 | 1014.1 |
| 20260503070112 | 61 | 142 | 2.0 | 4.0 | 0.00 | 0.00 | 0.00 | 84 | 1014.1 |
| 20260503060114 | 61 | 246 | 3.0 | 5.0 | 0.00 | 0.00 | 0.00 | 84 | 1013.8 |
| 20260503054600 | 61 | 259 | 3.0 | 7.0 | 0.00 | 0.00 | 0.00 | 84 | 1013.8 |
| 20260503053056 | 61 | 239 | 2.0 | 4.0 | 0.00 | 0.00 | 0.00 | 84 | 1013.7 |
| 20260503051559 | 61 | 240 | 2.0 | 5.0 | 0.00 | 0.00 | 0.00 | 84 | 1013.6 |
| 20260503044554 | 61 | 0 | 0.0 | 2.0 | 0.00 | 0.00 | 0.00 | 84 | 1013.2 |
| 20260503043051 | 61 | 0 | 0.0 | 2.0 | 0.00 | 0.00 | 0.00 | 84 | 1012.9 |
| 20260503041553 | 61 | 242 | 0.0 | 1.0 | 0.00 | 0.00 | 0.00 | 83 | 1012.7 |
| 20260503040057 | 61 | 0 | 0.0 | 2.0 | 0.00 | 0.00 | 0.00 | 83 | 1012.4 |
| 20260503034554 | 61 | 241 | 0.0 | 3.0 | 0.00 | 0.00 | 0.00 | 83 | 1012.3 |
| 20260503033059 | 61 | 240 | 2.0 | 4.0 | 0.00 | 0.00 | 0.00 | 83 | 1012.5 |
| 20260503031550 | 61 | 229 | 1.0 | 3.0 | 0.00 | 0.00 | 0.00 | 83 | 1012.3 |
| 20260503030050 | 61 | 230 | 1.0 | 4.0 | 0.00 | 0.00 | 0.00 | 82 | 1012.2 |
| 20260503024553 | 61 | 235 | 1.0 | 4.0 | 0.00 | 0.00 | 0.00 | 82 | 1012.0 |
| 20260503023051 | 61 | 0 | 2.0 | 6.0 | 0.00 | 0.00 | 0.00 | 82 | 1012.0 |
| 20260503021552 | 61 | 0 | 3.0 | 7.0 | 0.00 | 0.00 | 0.00 | 82 | 1011.8 |
| 20260503020049 | 62 | 251 | 3.0 | 7.0 | 0.00 | 0.00 | 0.00 | 82 | 1011.8 |
| 20260503014602 | 62 | 242 | 3.0 | 7.0 | 0.00 | 0.00 | 0.00 | 82 | 1011.8 |
| 20260503013051 | 62 | 244 | 3.0 | 7.0 | 0.00 | 0.00 | 0.00 | 81 | 1011.8 |
| 20260503011617 | 62 | 257 | 2.0 | 6.0 | 0.00 | 0.00 | 0.00 | 81 | 1011.6 |
| 20260503010053 | 62 | 246 | 2.0 | 8.0 | 0.00 | 0.00 | 0.00 | 81 | 1011.6 |
| 20260503004611 | 63 | 253 | 3.0 | 8.0 | 0.00 | 0.00 | 0.00 | 81 | 1011.6 |
| 20260503003054 | 63 | 266 | 4.0 | 10.0 | 0.00 | 0.00 | 0.00 | 81 | 1011.7 |
| 20260503001552 | 63 | 283 | 4.0 | 9.0 | 0.00 | 0.00 | 0.00 | 81 | 1011.8 |